16-05-2022, 00:00:01,    197,    0.0,   12.2,   0.00,   0.00, 1008.4,   87.1, -999.0
16-05-2022, 00:00:11,    197,    0.0,   12.3,   0.00,   0.00, 1008.4,   87.2, -999.0
16-05-2022, 00:00:20,    197,    0.0,   12.2,   0.00,   0.00, 1008.5,   87.2, -999.0
16-05-2022, 00:00:30,    196,    0.0,   12.3,   0.00,   0.00, 1008.5,   87.2, -999.0
16-05-2022, 00:00:41,    197,    0.0,   12.3,   0.00,   0.00, 1008.5,   87.2, -999.0
16-05-2022, 00:00:50,    197,    0.0,   12.3,   0.00,   0.00, 1008.5,   87.1, -999.0
16-05-2022, 00:01:00,    197,    0.0,   12.3,   0.00,   0.00, 1008.5,   87.0, -999.0
16-05-2022, 00:01:10,    197,    0.0,   12.3,   0.00,   0.00, 1008.5,   87.2, -999.0
16-05-2022, 00:01:20,    196,    0.0,   12.4,   0.00,   0.00, 1008.5,   87.2, -999.0
16-05-2022, 00:01:30,    197,    0.0,   12.4,   0.00,   0.00, 1008.5,   87.4, -999.0
16-05-2022, 00:01:40,    197,    0.0,   12.3,   0.00,   0.00, 1008.5,   87.3, -999.0
16-05-2022, 00:01:50,    196,    0.0,   12.3,   0.00,   0.00, 1008.5,   87.2, -999.0
16-05-2022, 00:02:00,    196,    0.0,   12.4,   0.00,   0.00, 1008.5,   87.2, -999.0
16-05-2022, 00:02:10,    196,    0.0,   12.4,   0.00,   0.00, 1008.5,   87.3, -999.0
16-05-2022, 00:02:20,    197,    0.0,   12.4,   0.00,   0.00, 1008.5,   87.2, -999.0
16-05-2022, 00:02:30,    197,    0.0,   12.3,   0.00,   0.00, 1008.5,   87.2, -999.0
16-05-2022, 00:02:40,    197,    0.0,   12.4,   0.00,   0.00, 1008.5,   87.0, -999.0
16-05-2022, 00:02:50,    196,    0.0,   12.4,   0.00,   0.00, 1008.4,   86.9, -999.0
16-05-2022, 00:02:59,    198,    0.0,   12.3,   0.00,   0.00, 1008.4,   86.9, -999.0
16-05-2022, 00:03:10,    197,    0.0,   12.4,   0.00,   0.00, 1008.5,   86.8, -999.0
16-05-2022, 00:03:20,    197,    0.0,   12.3,   0.00,   0.00, 1008.5,   86.8, -999.0
16-05-2022, 00:03:29,    197,    0.0,   12.4,   0.00,   0.00, 1008.5,   86.8, -999.0
16-05-2022, 00:03:39,    197,    0.0,   12.4,   0.00,   0.00, 1008.5,   86.7, -999.0
16-05-2022, 00:03:50,    196,    0.0,   12.4,   0.00,   0.00, 1008.5,   86.8, -999.0
16-05-2022, 00:03:59,    196,    0.0,   12.3,   0.00,   0.00, 1008.5,   86.7, -999.0
16-05-2022, 00:04:09,    197,    0.0,   12.2,   0.00,   0.00, 1008.5,   86.8, -999.0
16-05-2022, 00:04:19,    196,    0.0,   12.4,   0.00,   0.00, 1008.5,   86.6, -999.0
16-05-2022, 00:04:29,    196,    0.0,   12.4,   0.00,   0.00, 1008.5,   86.7, -999.0
16-05-2022, 00:04:39,    196,    0.0,   12.3,   0.00,   0.00, 1008.5,   86.7, -999.0
16-05-2022, 00:04:49,    197,    0.0,   12.4,   0.00,   0.00, 1008.5,   86.5, -999.0
16-05-2022, 00:04:59,    196,    0.0,   12.4,   0.00,   0.00, 1008.4,   86.6, -999.0
16-05-2022, 00:05:09,    201,    0.0,   12.4,   0.00,   0.01, 1008.5,   86.5, -999.0
16-05-2022, 00:05:19,    196,    0.0,   12.4,   0.00,   0.00, 1008.5,   86.5, -999.0
16-05-2022, 00:05:29,    196,    0.0,   12.4,   0.00,   0.00, 1008.4,   86.5, -999.0
16-05-2022, 00:05:39,    197,    0.0,   12.3,   0.00,   0.00, 1008.5,   86.4, -999.0
16-05-2022, 00:05:49,    197,    0.0,   12.3,   0.00,   0.03, 1008.4,   86.5, -999.0
16-05-2022, 00:05:59,    197,    0.0,   12.4,   0.00,   0.02, 1008.4,   86.4, -999.0
16-05-2022, 00:06:08,    197,    0.0,   12.4,   0.00,   0.04, 1008.5,   86.5, -999.0
16-05-2022, 00:06:19,    197,    0.0,   12.4,   0.00,   0.04, 1008.5,   86.4, -999.0
16-05-2022, 00:06:29,    196,    0.0,   12.3,   0.00,   0.02, 1008.5,   86.5, -999.0
16-05-2022, 00:06:38,    197,    0.0,   12.3,   0.00,   0.01, 1008.5,   86.6, -999.0
16-05-2022, 00:06:49,    197,    0.0,   12.3,   0.00,   0.02, 1008.5,   86.5, -999.0
16-05-2022, 00:06:58,    197,    0.0,   12.4,   0.00,   0.01, 1008.5,   86.6, -999.0
16-05-2022, 00:07:08,    196,    0.0,   12.4,   0.00,   0.01, 1008.5,   86.8, -999.0
16-05-2022, 00:07:18,    197,    0.0,   12.4,   0.00,   0.00, 1008.5,   86.7, -999.0
16-05-2022, 00:07:28,    197,    0.0,   12.4,   0.00,   0.00, 1008.4,   86.7, -999.0
16-05-2022, 00:07:38,    196,    0.0,   12.4,   0.00,   0.00, 1008.4,   86.6, -999.0
16-05-2022, 00:07:48,    197,    0.0,   12.4,   0.00,   0.00, 1008.4,   86.7, -999.0
16-05-2022, 00:07:58,    197,    0.0,   12.5,   0.00,   0.01, 1008.5,   86.7, -999.0
16-05-2022, 00:08:08,    196,    0.0,   12.5,   0.00,   0.00, 1008.5,   86.8, -999.0
16-05-2022, 00:08:18,    197,    0.0,   12.5,   0.00,   0.00, 1008.4,   86.8, -999.0
16-05-2022, 00:08:28,    197,    0.3,   12.5,   0.00,   0.00, 1008.5,   87.0, -999.0
16-05-2022, 00:08:38,    197,    0.2,   12.5,   0.00,   0.00, 1008.5,   86.9, -999.0
16-05-2022, 00:08:48,    197,    0.0,   12.5,   0.00,   0.00, 1008.4,   86.6, -999.0
16-05-2022, 00:08:58,    197,    0.0,   12.4,   0.00,   0.00, 1008.4,   86.5, -999.0
16-05-2022, 00:09:08,    197,    0.0,   12.4,   0.00,   0.00, 1008.4,   86.5, -999.0
16-05-2022, 00:09:17,    197,    0.0,   12.5,   0.00,   0.00, 1008.4,   86.5, -999.0
16-05-2022, 00:09:28,    195,    0.0,   12.4,   0.00,   0.01, 1008.4,   86.6, -999.0
16-05-2022, 00:09:38,    197,    0.0,   12.5,   0.00,   0.00, 1008.4,   86.6, -999.0
16-05-2022, 00:09:47,    197,    0.0,   12.6,   0.00,   0.00, 1008.4,   86.7, -999.0
16-05-2022, 00:09:58,    197,    0.0,   12.3,   0.00,   0.00, 1008.4,   86.6, -999.0
16-05-2022, 00:10:07,    197,    0.0,   12.5,   0.00,   0.00, 1008.4,   86.7, -999.0
16-05-2022, 00:10:17,    197,    0.0,   12.5,   0.00,   0.01, 1008.4,   86.7, -999.0
16-05-2022, 00:10:27,    197,    0.0,   12.4,   0.00,   0.01, 1008.4,   86.7, -999.0
16-05-2022, 00:10:37,    197,    0.0,   12.5,   0.00,   0.02, 1008.4,   86.9, -999.0
16-05-2022, 00:10:47,    196,    0.0,   12.5,   0.00,   0.04, 1008.4,   86.9, -999.0
16-05-2022, 00:10:57,    197,    0.0,   12.5,   0.00,   0.02, 1008.4,   86.7, -999.0
16-05-2022, 00:11:07,    197,    0.0,   12.5,   0.00,   0.04, 1008.5,   86.9, -999.0
16-05-2022, 00:11:17,    196,    0.0,   12.5,   0.00,   0.06, 1008.4,   86.7, -999.0
16-05-2022, 00:11:27,    196,    0.0,   12.5,   0.00,   0.06, 1008.4,   86.7, -999.0
16-05-2022, 00:11:37,    197,    0.0,   12.5,   0.00,   0.09, 1008.5,   87.2, -999.0
16-05-2022, 00:11:47,    196,    0.0,   12.5,   0.00,   0.09, 1008.4,   87.1, -999.0
16-05-2022, 00:11:57,    197,    0.0,   12.5,   0.00,   0.08, 1008.4,   87.1, -999.0
16-05-2022, 00:12:07,    197,    0.0,   12.4,   0.00,   0.07, 1008.4,   87.1, -999.0
16-05-2022, 00:12:17,    196,    0.0,   12.4,   0.00,   0.06, 1008.3,   87.4, -999.0
16-05-2022, 00:12:27,    196,    0.0,   12.4,   0.00,   0.05, 1008.3,   87.5, -999.0
16-05-2022, 00:12:37,    196,    0.0,   12.5,   0.00,   0.03, 1008.3,   87.6, -999.0
16-05-2022, 00:12:47,    197,    0.0,   12.4,   0.00,   0.02, 1008.3,   87.6, -999.0
16-05-2022, 00:12:56,    196,    0.0,   12.5,   0.00,   0.03, 1008.3,   87.7, -999.0
16-05-2022, 00:13:07,    196,    0.0,   12.3,   0.00,   0.05, 1008.3,   88.0, -999.0
16-05-2022, 00:13:16,    196,    0.0,   12.4,   0.00,   0.02, 1008.4,   88.4, -999.0
16-05-2022, 00:13:26,    196,    0.0,   12.4,   0.00,   0.02, 1008.4,   88.4, -999.0
16-05-2022, 00:13:36,    196,    0.0,   12.4,   0.00,   0.01, 1008.4,   88.6, -999.0
16-05-2022, 00:13:46,    197,    0.0,   12.4,   0.00,   0.02, 1008.4,   88.5, -999.0
16-05-2022, 00:13:56,    197,    0.0,   12.3,   0.00,   0.01, 1008.4,   88.6, -999.0
16-05-2022, 00:14:06,    196,    0.0,   12.3,   0.00,   0.01, 1008.4,   88.7, -999.0
16-05-2022, 00:14:16,    197,    0.0,   12.3,   0.00,   0.01, 1008.3,   88.7, -999.0
16-05-2022, 00:14:26,    196,    0.0,   12.3,   0.00,   0.00, 1008.3,   88.9, -999.0
16-05-2022, 00:14:36,    197,    0.0,   12.2,   0.00,   0.01, 1008.4,   89.0, -999.0
16-05-2022, 00:14:46,    196,    0.0,   12.3,   0.00,   0.00, 1008.3,   89.2, -999.0
16-05-2022, 00:14:56,    196,    0.0,   12.4,   0.00,   0.00, 1008.3,   89.3, -999.0
16-05-2022, 00:15:06,    196,    0.0,   12.4,   0.00,   0.01, 1008.3,   89.5, -999.0
16-05-2022, 00:15:16,    196,    0.0,   12.3,   0.00,   0.00, 1008.3,   89.5, -999.0
16-05-2022, 00:15:26,    197,    0.0,   12.3,   0.00,   0.00, 1008.3,   89.7, -999.0
16-05-2022, 00:15:36,    196,    0.0,   12.4,   0.00,   0.00, 1008.3,   89.8, -999.0
16-05-2022, 00:15:46,    197,    0.7,   12.5,   0.00,   0.00, 1008.4,   90.2, -999.0
16-05-2022, 00:15:56,    196,    0.1,   12.3,   0.00,   0.00, 1008.4,   89.9, -999.0
16-05-2022, 00:16:05,    196,    0.0,   12.3,   0.00,   0.01, 1008.4,   89.7, -999.0
16-05-2022, 00:16:16,    197,    0.0,   12.3,   0.00,   0.00, 1008.3,   89.8, -999.0
16-05-2022, 00:16:25,    196,    0.0,   12.3,   0.00,   0.00, 1008.4,   89.9, -999.0
16-05-2022, 00:16:35,    197,    0.0,   12.3,   0.00,   0.00, 1008.3,   89.9, -999.0
16-05-2022, 00:16:45,    196,    0.0,   12.2,   0.00,   0.00, 1008.3,   90.0, -999.0
16-05-2022, 00:16:55,    196,    0.0,   12.2,   0.00,   0.00, 1008.3,   90.1, -999.0
16-05-2022, 00:17:05,    196,    0.0,   12.3,   0.00,   0.00, 1008.3,   90.2, -999.0
16-05-2022, 00:17:15,    197,    0.0,   12.4,   0.00,   0.00, 1008.3,   90.3, -999.0
16-05-2022, 00:17:25,    197,    0.0,   12.3,   0.00,   0.01, 1008.3,   90.3, -999.0
16-05-2022, 00:17:35,    196,    0.0,   12.3,   0.00,   0.00, 1008.3,   90.4, -999.0
16-05-2022, 00:17:45,    197,    0.0,   12.4,   0.00,   0.00, 1008.3,   90.4, -999.0
16-05-2022, 00:17:55,    196,    0.2,   12.3,   0.00,   0.00, 1008.4,   90.9, -999.0
16-05-2022, 00:18:05,    196,    0.0,   12.4,   0.00,   0.00, 1008.3,   90.3, -999.0
16-05-2022, 00:18:15,    196,    0.0,   12.3,   0.00,   0.00, 1008.3,   90.4, -999.0
16-05-2022, 00:18:25,    196,    0.0,   12.3,   0.00,   0.00, 1008.3,   90.3, -999.0
16-05-2022, 00:18:35,    196,    0.0,   12.3,   0.00,   0.00, 1008.4,   90.2, -999.0
16-05-2022, 00:18:45,    196,    0.0,   12.3,   0.00,   0.00, 1008.3,   90.3, -999.0
16-05-2022, 00:18:55,    196,    0.0,   12.3,   0.00,   0.00, 1008.3,   90.4, -999.0
16-05-2022, 00:19:05,    196,    0.0,   12.2,   0.00,   0.00, 1008.4,   90.5, -999.0
16-05-2022, 00:19:14,    196,    0.3,   12.3,   0.00,   0.00, 1008.4,   90.7, -999.0
16-05-2022, 00:19:25,    196,    0.1,   12.2,   0.00,   0.00, 1008.3,   90.5, -999.0
16-05-2022, 00:19:34,    197,    0.0,   12.3,   0.00,   0.00, 1008.3,   90.4, -999.0
16-05-2022, 00:19:44,    156,    0.4,   12.2,   0.00,   0.00, 1008.4,   90.4, -999.0
16-05-2022, 00:19:54,    157,    0.8,   12.3,   0.00,   0.00, 1008.4,   90.7, -999.0
16-05-2022, 00:20:04,    156,    0.8,   12.3,   0.00,   0.00, 1008.5,   90.9, -999.0
16-05-2022, 00:20:14,    155,    0.0,   12.2,   0.00,   0.00, 1008.3,   90.6, -999.0
16-05-2022, 00:20:24,    156,    0.0,   12.3,   0.00,   0.00, 1008.4,   90.7, -999.0
16-05-2022, 00:20:34,    155,    0.0,   12.2,   0.00,   0.00, 1008.3,   90.6, -999.0
16-05-2022, 00:20:44,    155,    0.0,   12.2,   0.00,   0.01, 1008.3,   90.6, -999.0
16-05-2022, 00:20:54,    155,    0.0,   12.2,   0.00,   0.02, 1008.3,   90.7, -999.0
16-05-2022, 00:21:04,    156,    0.0,   12.2,   0.00,   0.01, 1008.3,   90.8, -999.0
16-05-2022, 00:21:14,    155,    0.0,   12.2,   0.00,   0.00, 1008.3,   90.7, -999.0
16-05-2022, 00:21:24,    155,    0.0,   12.1,   0.00,   0.01, 1008.3,   90.8, -999.0
16-05-2022, 00:21:34,    156,    0.0,   12.3,   0.00,   0.01, 1008.3,   90.9, -999.0
16-05-2022, 00:21:44,    155,    0.0,   12.3,   0.00,   0.01, 1008.3,   90.8, -999.0
16-05-2022, 00:21:54,    156,    0.0,   12.2,   0.00,   0.01, 1008.3,   90.9, -999.0
16-05-2022, 00:22:04,    155,    0.0,   12.3,   0.00,   0.01, 1008.3,   90.9, -999.0
16-05-2022, 00:22:14,    155,    0.0,   12.2,   0.00,   0.01, 1008.3,   90.9, -999.0
16-05-2022, 00:22:23,    155,    0.0,   12.1,   0.00,   0.01, 1008.3,   90.9, -999.0
16-05-2022, 00:22:34,    155,    0.0,   12.1,   0.00,   0.00, 1008.3,   90.8, -999.0
16-05-2022, 00:22:43,    155,    0.0,   12.2,   0.00,   0.01, 1008.3,   90.7, -999.0
16-05-2022, 00:22:53,    156,    0.0,   12.1,   0.00,   0.00, 1008.3,   90.7, -999.0
16-05-2022, 00:23:03,    155,    0.0,   12.1,   0.00,   0.01, 1008.3,   90.8, -999.0
16-05-2022, 00:23:13,    155,    0.0,   12.0,   0.00,   0.00, 1008.3,   90.8, -999.0
16-05-2022, 00:23:23,    155,    0.0,   12.1,   0.00,   0.01, 1008.3,   90.9, -999.0
16-05-2022, 00:23:33,    155,    0.0,   12.1,   0.00,   0.00, 1008.3,   91.0, -999.0
16-05-2022, 00:23:43,    155,    0.0,   12.1,   0.00,   0.01, 1008.3,   90.8, -999.0
16-05-2022, 00:23:53,    155,    0.0,   12.1,   0.00,   0.00, 1008.2,   90.9, -999.0
16-05-2022, 00:24:03,    155,    0.0,   12.1,   0.00,   0.00, 1008.3,   90.8, -999.0
16-05-2022, 00:24:13,    154,    0.0,   12.1,   0.00,   0.01, 1008.2,   90.9, -999.0
16-05-2022, 00:24:23,    155,    0.0,   12.2,   0.00,   0.01, 1008.2,   91.1, -999.0
16-05-2022, 00:24:33,    156,    0.0,   12.2,   0.00,   0.00, 1008.2,   91.3, -999.0
16-05-2022, 00:24:43,    156,    0.0,   12.2,   0.00,   0.00, 1008.2,   91.3, -999.0
16-05-2022, 00:24:53,    155,    0.0,   12.2,   0.00,   0.00, 1008.2,   91.3, -999.0
16-05-2022, 00:25:03,    155,    0.0,   12.3,   0.00,   0.00, 1008.2,   91.4, -999.0
16-05-2022, 00:25:13,    155,    0.0,   12.3,   0.00,   0.00, 1008.2,   91.5, -999.0
16-05-2022, 00:25:23,    156,    0.0,   12.2,   0.00,   0.01, 1008.2,   91.5, -999.0
16-05-2022, 00:25:32,    155,    0.0,   12.3,   0.00,   0.00, 1008.2,   91.6, -999.0
16-05-2022, 00:25:43,    155,    0.0,   12.2,   0.00,   0.00, 1008.1,   91.6, -999.0
16-05-2022, 00:25:52,    156,    0.0,   12.3,   0.00,   0.00, 1008.1,   91.5, -999.0
16-05-2022, 00:26:02,    155,    0.0,   12.3,   0.00,   0.00, 1008.1,   91.6, -999.0
16-05-2022, 00:26:13,    155,    0.0,   12.3,   0.00,   0.00, 1008.1,   91.6, -999.0
16-05-2022, 00:26:22,    156,    0.0,   12.2,   0.00,   0.00, 1008.1,   91.7, -999.0
16-05-2022, 00:26:32,    155,    0.0,   12.3,   0.00,   0.00, 1008.1,   91.6, -999.0
16-05-2022, 00:26:42,    155,    0.0,   12.3,   0.00,   0.00, 1008.1,   91.7, -999.0
16-05-2022, 00:26:52,    155,    0.0,   12.2,   0.00,   0.00, 1008.1,   91.7, -999.0
16-05-2022, 00:27:02,    155,    0.0,   12.2,   0.00,   0.00, 1008.1,   91.6, -999.0
16-05-2022, 00:27:12,    156,    0.0,   12.4,   0.00,   0.00, 1008.1,   91.7, -999.0
16-05-2022, 00:27:22,    155,    0.0,   12.2,   0.00,   0.00, 1008.1,   91.8, -999.0
16-05-2022, 00:27:32,    155,    0.0,   12.4,   0.00,   0.00, 1008.1,   91.9, -999.0
16-05-2022, 00:27:42,    155,    0.0,   12.4,   0.00,   0.00, 1008.1,   91.9, -999.0
16-05-2022, 00:27:52,    156,    0.0,   12.4,   0.00,   0.00, 1008.1,   92.0, -999.0
16-05-2022, 00:28:02,    155,    0.0,   12.4,   0.00,   0.00, 1008.1,   92.0, -999.0
16-05-2022, 00:28:12,    156,    0.0,   12.3,   0.00,   0.00, 1008.1,   91.9, -999.0
16-05-2022, 00:28:22,    155,    0.0,   12.2,   0.00,   0.00, 1008.1,   91.7, -999.0
16-05-2022, 00:28:31,    155,    0.0,   12.3,   0.00,   0.00, 1008.1,   91.7, -999.0
16-05-2022, 00:28:42,    155,    0.0,   12.3,   0.00,   0.00, 1008.1,   91.7, -999.0
16-05-2022, 00:28:52,    155,    0.0,   12.3,   0.00,   0.00, 1008.1,   91.8, -999.0
16-05-2022, 00:29:01,    155,    0.0,   12.3,   0.00,   0.01, 1008.1,   91.8, -999.0
16-05-2022, 00:29:11,    155,    0.0,   12.4,   0.00,   0.00, 1008.1,   91.9, -999.0
16-05-2022, 00:29:22,    155,    0.0,   12.4,   0.00,   0.00, 1008.1,   92.0, -999.0
16-05-2022, 00:29:31,    155,    0.0,   12.4,   0.00,   0.00, 1008.1,   92.1, -999.0
16-05-2022, 00:29:41,    155,    0.0,   12.5,   0.00,   0.00, 1008.1,   92.2, -999.0
16-05-2022, 00:29:51,    155,    0.0,   12.5,   0.00,   0.01, 1008.0,   92.3, -999.0
16-05-2022, 00:30:01,    155,    0.0,   12.5,   0.00,   0.00, 1008.0,   92.3, -999.0
16-05-2022, 00:30:11,    134,    0.1,   12.5,   0.00,   0.01, 1008.1,   92.2, -999.0
16-05-2022, 00:30:21,    134,    0.5,   12.5,   0.00,   0.00, 1008.2,   92.5, -999.0
16-05-2022, 00:30:31,    134,    0.1,   12.4,   0.00,   0.00, 1008.2,   92.1, -999.0
16-05-2022, 00:30:41,    134,    0.2,   12.5,   0.00,   0.01, 1008.1,   92.5, -999.0
16-05-2022, 00:30:51,    134,    0.4,   12.5,   0.00,   0.01, 1008.2,   92.5, -999.0
16-05-2022, 00:31:01,    134,    0.0,   12.5,   0.00,   0.02, 1008.1,   92.2, -999.0
16-05-2022, 00:31:11,    134,    0.0,   12.5,   0.00,   0.02, 1008.1,   92.1, -999.0
16-05-2022, 00:31:21,    134,    0.0,   12.4,   0.00,   0.01, 1008.0,   92.3, -999.0
16-05-2022, 00:31:31,    134,    0.0,   12.5,   0.00,   0.02, 1008.0,   92.2, -999.0
16-05-2022, 00:31:40,    134,    0.0,   12.5,   0.00,   0.02, 1008.0,   92.2, -999.0
16-05-2022, 00:31:51,    134,    0.0,   12.5,   0.00,   0.02, 1008.0,   92.3, -999.0
16-05-2022, 00:32:01,    134,    0.0,   12.4,   0.00,   0.02, 1008.1,   92.2, -999.0
16-05-2022, 00:32:10,    134,    0.0,   12.4,   0.00,   0.02, 1008.0,   92.3, -999.0
16-05-2022, 00:32:20,    133,    0.0,   12.4,   0.00,   0.01, 1008.0,   92.1, -999.0
16-05-2022, 00:32:31,    134,    0.0,   12.5,   0.00,   0.01, 1008.0,   92.2, -999.0
16-05-2022, 00:32:40,    134,    0.0,   12.4,   0.00,   0.01, 1008.0,   92.2, -999.0
16-05-2022, 00:32:50,    134,    0.0,   12.4,   0.00,   0.01, 1008.0,   92.1, -999.0
16-05-2022, 00:33:00,    134,    0.0,   12.5,   0.00,   0.01, 1008.0,   92.1, -999.0
16-05-2022, 00:33:10,    134,    0.0,   12.5,   0.00,   0.00, 1008.0,   92.2, -999.0
16-05-2022, 00:33:20,    134,    0.0,   12.5,   0.00,   0.01, 1008.0,   92.1, -999.0
16-05-2022, 00:33:30,    134,    0.0,   12.4,   0.00,   0.00, 1008.0,   92.2, -999.0
16-05-2022, 00:33:40,    134,    0.0,   12.3,   0.00,   0.01, 1008.0,   92.1, -999.0
16-05-2022, 00:33:50,    134,    0.0,   12.4,   0.00,   0.01, 1007.9,   92.1, -999.0
16-05-2022, 00:34:00,    134,    0.0,   12.5,   0.00,   0.00, 1007.9,   92.3, -999.0
16-05-2022, 00:34:10,    134,    0.0,   12.4,   0.00,   0.01, 1007.9,   92.2, -999.0
16-05-2022, 00:34:20,    134,    0.0,   12.4,   0.00,   0.01, 1007.9,   92.3, -999.0
16-05-2022, 00:34:30,    134,    0.0,   12.5,   0.00,   0.02, 1007.9,   92.2, -999.0
16-05-2022, 00:34:40,    134,    0.0,   12.5,   0.00,   0.02, 1007.9,   92.3, -999.0
16-05-2022, 00:34:49,    134,    0.0,   12.5,   0.00,   0.02, 1007.9,   92.3, -999.0
16-05-2022, 00:35:00,    133,    0.0,   12.4,   0.00,   0.02, 1007.9,   92.3, -999.0
16-05-2022, 00:35:10,    129,    0.0,   12.4,   0.00,   0.02, 1007.9,   92.3, -999.0
16-05-2022, 00:35:19,    134,    0.0,   12.4,   0.00,   0.02, 1007.9,   92.3, -999.0
16-05-2022, 00:35:29,    134,    0.0,   12.3,   0.00,   0.01, 1008.0,   92.4, -999.0
16-05-2022, 00:35:40,    134,    0.0,   12.3,   0.00,   0.01, 1008.0,   92.3, -999.0
16-05-2022, 00:35:49,    131,    0.0,   12.3,   0.00,   0.00, 1008.0,   92.4, -999.0
16-05-2022, 00:35:59,    133,    0.0,   12.3,   0.00,   0.01, 1008.0,   92.4, -999.0
16-05-2022, 00:36:09,    134,    0.0,   12.4,   0.00,   0.00, 1008.0,   92.4, -999.0
16-05-2022, 00:36:19,    134,    0.4,   12.4,   0.00,   0.01, 1008.1,   92.7, -999.0
16-05-2022, 00:36:29,    134,    0.4,   12.4,   0.00,   0.00, 1008.2,   92.6, -999.0
16-05-2022, 00:36:39,    134,    0.0,   12.3,   0.00,   0.00, 1008.1,   92.3, -999.0
16-05-2022, 00:36:49,    134,    0.0,   12.4,   0.00,   0.01, 1008.1,   92.3, -999.0
16-05-2022, 00:36:59,    134,    0.0,   12.2,   0.00,   0.00, 1008.0,   92.5, -999.0
16-05-2022, 00:37:09,    134,    0.3,   12.3,   0.00,   0.00, 1008.2,   92.7, -999.0
16-05-2022, 00:37:19,    134,    0.0,   12.2,   0.00,   0.01, 1008.1,   92.5, -999.0
16-05-2022, 00:37:29,    134,    0.0,   12.3,   0.00,   0.00, 1008.0,   92.6, -999.0
16-05-2022, 00:37:39,    133,    0.2,   12.3,   0.00,   0.01, 1008.1,   92.8, -999.0
16-05-2022, 00:37:49,    133,    0.0,   12.3,   0.00,   0.00, 1008.1,   92.6, -999.0
16-05-2022, 00:37:58,    134,    0.0,   12.2,   0.00,   0.00, 1008.1,   92.6, -999.0
16-05-2022, 00:38:09,    134,    0.0,   12.2,   0.00,   0.00, 1008.1,   92.7, -999.0
16-05-2022, 00:38:19,    133,    0.1,   12.2,   0.00,   0.01, 1008.1,   92.8, -999.0
16-05-2022, 00:38:28,    133,    0.7,   12.3,   0.00,   0.00, 1008.2,   93.1, -999.0
16-05-2022, 00:38:38,    133,    0.0,   12.3,   0.00,   0.00, 1008.1,   92.9, -999.0
16-05-2022, 00:38:49,    133,    0.0,   12.2,   0.00,   0.00, 1008.1,   93.1, -999.0
16-05-2022, 00:38:58,    133,    0.1,   12.3,   0.00,   0.01, 1008.2,   93.2, -999.0
16-05-2022, 00:39:08,    133,    0.0,   12.4,   0.00,   0.00, 1008.1,   92.9, -999.0
16-05-2022, 00:39:18,    133,    0.0,   12.3,   0.00,   0.00, 1008.1,   92.9, -999.0
16-05-2022, 00:39:28,    133,    0.0,   12.3,   0.00,   0.01, 1008.1,   93.0, -999.0
16-05-2022, 00:39:38,    133,    0.0,   12.2,   0.00,   0.00, 1008.0,   93.0, -999.0
16-05-2022, 00:39:48,    133,    0.0,   12.2,   0.00,   0.01, 1008.0,   92.9, -999.0
16-05-2022, 00:39:58,    133,    0.0,   12.1,   0.00,   0.00, 1008.0,   92.9, -999.0
16-05-2022, 00:40:08,    133,    0.0,   12.2,   0.00,   0.01, 1008.0,   93.0, -999.0
16-05-2022, 00:40:18,    133,    0.0,   12.2,   0.00,   0.00, 1008.0,   93.0, -999.0
16-05-2022, 00:40:28,    132,    0.1,   12.3,   0.00,   0.02, 1008.1,   93.2, -999.0
16-05-2022, 00:40:38,    132,    1.0,   12.3,   0.00,   0.02, 1008.2,   93.5, -999.0
16-05-2022, 00:40:48,    132,    0.2,   12.3,   0.00,   0.01, 1008.1,   93.4, -999.0
16-05-2022, 00:40:58,    132,    0.0,   12.2,   0.00,   0.01, 1008.1,   93.2, -999.0
16-05-2022, 00:41:07,    131,    0.0,   12.2,   0.00,   0.01, 1008.1,   93.3, -999.0
16-05-2022, 00:41:18,    132,    0.0,   12.3,   0.00,   0.01, 1008.1,   93.2, -999.0
16-05-2022, 00:41:28,    132,    0.0,   12.2,   0.00,   0.02, 1008.1,   93.2, -999.0
16-05-2022, 00:41:37,    132,    0.0,   12.2,   0.00,   0.02, 1008.1,   93.2, -999.0
16-05-2022, 00:41:48,    132,    0.0,   12.2,   0.00,   0.02, 1008.1,   93.2, -999.0
16-05-2022, 00:41:58,    132,    0.0,   12.1,   0.00,   0.01, 1008.1,   93.3, -999.0
16-05-2022, 00:42:07,    132,    0.0,   12.2,   0.00,   0.03, 1008.1,   93.2, -999.0
16-05-2022, 00:42:17,    132,    0.0,   12.2,   0.00,   0.03, 1008.0,   93.3, -999.0
16-05-2022, 00:42:27,    132,    0.0,   12.2,   0.00,   0.06, 1008.0,   93.4, -999.0
16-05-2022, 00:42:37,    132,    0.0,   12.2,   0.00,   0.04, 1008.0,   93.5, -999.0
16-05-2022, 00:42:47,    131,    0.0,   12.2,   0.00,   0.04, 1008.1,   93.6, -999.0
16-05-2022, 00:42:57,    132,    0.0,   12.2,   0.00,   0.03, 1008.0,   93.5, -999.0
16-05-2022, 00:43:07,    127,    0.3,   12.2,   0.00,   0.04, 1008.2,   93.7, -999.0
16-05-2022, 00:43:17,    127,    0.0,   12.2,   0.00,   0.02, 1008.0,   93.6, -999.0
16-05-2022, 00:43:27,    127,    0.0,   12.2,   0.00,   0.02, 1008.0,   93.7, -999.0
16-05-2022, 00:43:37,    127,    0.0,   12.2,   0.00,   0.01, 1008.0,   93.7, -999.0
16-05-2022, 00:43:47,    127,    0.0,   12.2,   0.00,   0.01, 1008.0,   93.8, -999.0
16-05-2022, 00:43:57,    127,    0.0,   12.2,   0.00,   0.02, 1007.9,   94.0, -999.0
16-05-2022, 00:44:07,    127,    0.0,   12.2,   0.00,   0.01, 1007.9,   93.9, -999.0
16-05-2022, 00:44:17,    127,    0.0,   12.2,   0.00,   0.01, 1007.9,   93.9, -999.0
16-05-2022, 00:44:27,    127,    0.0,   12.2,   0.00,   0.00, 1007.9,   94.0, -999.0
16-05-2022, 00:44:37,    127,    0.0,   12.2,   0.00,   0.01, 1007.9,   94.1, -999.0
16-05-2022, 00:44:46,    127,    0.0,   12.3,   0.00,   0.01, 1007.9,   94.2, -999.0
16-05-2022, 00:44:57,    127,    0.0,   12.3,   0.00,   0.01, 1007.9,   94.2, -999.0
16-05-2022, 00:45:06,    127,    0.0,   12.3,   0.00,   0.01, 1007.9,   94.2, -999.0
16-05-2022, 00:45:16,    127,    0.0,   12.2,   0.00,   0.01, 1007.9,   94.4, -999.0
16-05-2022, 00:45:26,    113,    1.3,   12.4,   0.00,   0.00, 1008.0,   95.0, -999.0
16-05-2022, 00:45:36,    113,    1.2,   12.3,   0.00,   0.01, 1008.0,   95.0, -999.0
16-05-2022, 00:45:46,    113,    0.6,   12.3,   0.00,   0.02, 1007.9,   94.9, -999.0
16-05-2022, 00:45:56,    112,    0.0,   12.3,   0.00,   0.00, 1007.9,   94.7, -999.0
16-05-2022, 00:46:06,    112,    0.0,   12.3,   0.00,   0.01, 1007.9,   94.6, -999.0
16-05-2022, 00:46:16,    113,    0.1,   12.3,   0.00,   0.01, 1007.9,   94.8, -999.0
16-05-2022, 00:46:26,    112,    0.1,   12.3,   0.00,   0.01, 1007.9,   94.9, -999.0
16-05-2022, 00:46:36,    112,    0.0,   12.3,   0.00,   0.01, 1007.9,   94.7, -999.0